Wind_Speed
9 9 9 9 10 10 10 9 9 9 9 9 10 10 10 10 10 10 10 10 10 10 10 10 10 10 11 11 11 10 10 10 10 10 11 11 11 12 13 14 15 16 16
11 10 10 11 11 11 11 10 10 10 9 9 10 10 10 10 11 11 11 11 11 11 11 11 11 11 11 11 12 12 11 12 12 12 12 12 13 14 15 15 16 16 16
12 12 12 12 12 12 12 11 11 11 10 10 10 11 11 11 11 12 12 12 12 12 12 12 12 13 12 12 13 13 13 13 13 13 13 14 14 15 16 16 16 17 17
13 13 13 13 13 13 12 12 11 11 11 11 11 12 12 12 12 13 13 13 13 13 13 13 13 14 14 14 14 14 14 14 14 14 14 15 16 16 17 17 18 19 19
14 14 13 13 13 13 13 12 12 12 12 12 13 13 13 13 14 14 14 14 14 14 14 14 14 15 15 16 16 16 17 16 16 16 16 16 17 17 18 19 20 20 21
14 14 14 13 13 13 13 13 13 13 13 13 14 15 15 16 16 15 15 16 15 15 15 15 16 17 17 18 18 18 18 18 18 18 19 19 18 19 20 20 21 22 22
15 14 14 14 14 13 13 13 13 13 14 14 15 15 16 16 16 16 16 17 16 16 16 17 17 18 19 19 19 19 19 19 19 20 20 20 20 21 21 22 22 23 24
15 15 14 14 14 14 13 13 14 14 14 15 15 16 16 17 17 17 17 17 17 17 18 18 19 19 20 20 20 20 21 21 22 22 22 22 22 22 23 23 23 23 24
16 15 15 15 15 15 15 15 15 15 16 16 16 16 16 17 18 19 19 19 19 19 19 20 20 20 20 20 21 21 21 22 23 24 24 24 24 24 24 24 24 24 24
17 16 16 16 16 17 17 17 17 18 18 18 17 18 18 18 19 20 20 20 21 21 21 21 21 21 21 22 22 23 22 22 23 24 24 25 25 25 25 25 25 25 26
18 17 17 17 18 18 19 19 20 19 19 19 19 20 20 20 21 21 21 21 21 22 22 22 21 22 22 23 23 24 24 24 23 23 24 25 25 26 26 26 27 27 27
19 19 19 19 20 20 20 20 20 20 20 21 21 21 22 22 22 22 22 22 23 24 23 23 22 23 23 24 24 25 25 25 25 25 25 25 25 26 27 28 28 29 29
21 21 21 21 22 21 21 22 22 21 21 22 23 23 23 23 23 22 22 23 23 24 24 24 24 25 24 24 25 26 26 26 25 25 25 25 25 26 27 28 29 30 30
22 22 23 23 22 22 23 23 23 23 23 24 24 25 25 25 25 25 25 25 25 25 25 26 26 26 26 26 26 27 27 27 26 26 26 26 26 27 27 29 30 30 30
24 24 24 24 23 24 24 24 24 24 25 26 26 26 26 26 27 26 27 27 27 27 27 27 27 28 28 28 28 28 28 28 27 27 28 28 28 28 28 29 30 31 31
25 25 25 25 25 26 26 26 26 26 26 27 27 28 28 28 28 28 28 28 29 29 29 29 29 29 29 29 29 29 29 29 29 29 29 29 29 29 29 30 31 31 31
26 26 26 26 27 27 28 28 28 28 28 29 29 29 30 30 30 30 31 31 31 32 31 31 30 31 31 31 30 30 30 31 31 31 30 30 30 30 31 31 31 32 33
28 28 28 28 29 29 29 30 30 30 30 30 30 31 32 32 32 32 32 32 32 32 32 32 32 32 32 31 31 31 31 32 32 32 32 31 32 32 32 33 33 33 34
29 30 30 30 31 31 31 31 31 31 31 32 32 32 33 33 33 33 33 33 33 33 33 33 33 33 33 33 33 33 33 33 32 33 33 33 33 33 34 34 35 35 35
31 31 32 32 32 32 32 32 32 33 33 33 33 33 33 33 33 33 33 33 33 33 33 33 33 34 34 35 35 35 35 34 34 34 34 35 35 35 35 35 36 36 36
32 32 32 33 33 33 33 33 33 33 33 33 33 33 33 33 32 33 33 33 33 33 33 33 33 33 34 35 36 36 37 36 36 36 36 36 37 37 37 38 38 37 37
32 33 33 33 33 34 34 33 34 34 33 33 33 32 32 33 33 34 34 34 34 34 34 34 35 35 35 35 35 35 36 37 37 37 37 38 38 39 39 39 39 39 39
35 35 34 35 35 36 36 36 36 36 35 34 34 34 33 34 35 35 36 35 35 35 35 35 36 36 36 36 37 36 36 36 37 38 39 40 40 40 40 40 40 39 39
37 36 36 37 37 37 38 38 37 37 36 36 35 35 35 35 35 36 36 36 36 36 36 36 37 37 37 37 37 37 38 38 38 38 40 40 41 41 40 40 40 40 40
38 38 38 38 38 38 38 38 38 37 36 36 36 36 36 36 36 36 37 37 37 37 37 37 37 38 38 38 38 39 40 40 40 40 39 40 41 40 40 41 41 41 40
39 39 40 40 39 39 39 38 38 38 37 37 37 37 38 38 38 38 37 37 37 37 38 38 38 39 39 39 39 39 40 41 41 41 41 41 41 40 40 40 40 40 40
Wind_Direction
307 307 305 303 302 301 298 298 299 296 286 278 272 267 267 267 273 277 282 283 284 289 288 288 290 289 281 279 278 280 283 283 285 285 286 288 292 293 293 291 291 290 290
303 302 301 300 298 299 297 296 295 293 288 281 275 272 272 271 273 275 278 280 284 286 286 285 288 288 286 285 282 283 283 284 285 285 287 290 292 293 294 293 293 293 293
298 297 295 294 294 293 293 292 290 286 284 279 276 275 274 275 273 273 275 277 282 281 280 279 282 283 283 286 286 286 285 285 284 284 285 288 290 292 294 294 293 294 294
298 296 293 292 290 287 285 285 284 282 281 277 276 275 273 274 273 273 275 277 278 277 277 277 279 280 279 281 284 285 285 285 285 286 287 287 289 292 294 295 295 295 296
295 298 296 291 289 287 283 281 280 280 281 280 277 273 273 273 273 274 276 279 280 279 277 276 278 280 280 280 282 284 283 283 283 285 288 291 291 292 294 295 295 296 297
293 294 295 291 288 286 285 283 280 280 281 281 278 273 272 273 273 276 279 280 280 279 279 278 278 278 280 281 283 283 282 282 283 285 287 289 291 295 296 297 297 297 296
291 291 292 290 288 288 287 286 281 279 280 280 278 276 274 275 276 277 277 277 279 280 280 279 278 278 280 282 283 282 281 281 283 286 288 289 291 293 296 298 297 297 297
288 288 289 289 290 290 285 282 281 281 282 282 279 277 276 276 277 278 278 277 279 281 282 280 279 280 281 282 282 281 282 282 283 284 286 288 289 291 294 296 297 297 297
289 288 288 288 288 288 286 282 281 281 282 282 280 278 276 277 277 278 277 278 279 280 280 281 280 281 281 282 284 284 284 284 283 284 285 287 288 289 292 294 296 297 299
286 285 284 284 285 286 286 284 281 279 279 279 278 278 277 279 279 278 276 277 278 279 281 281 280 280 281 283 285 285 286 286 287 286 285 286 288 289 291 293 295 296 298
283 282 283 283 284 286 286 284 281 279 279 277 277 278 277 279 280 279 277 276 277 279 279 279 278 279 281 284 285 289 288 287 288 287 288 287 287 289 291 292 294 296 297
282 283 284 285 286 287 285 284 281 279 278 277 278 278 278 279 279 279 279 278 277 278 278 279 279 278 280 283 287 288 289 287 286 286 287 287 288 289 290 292 293 295 297
281 282 284 286 286 285 284 284 282 280 279 278 279 278 278 278 278 279 279 280 280 278 278 279 279 280 281 283 286 287 287 288 287 285 286 287 288 289 290 291 293 294 296
282 283 284 285 286 284 283 284 283 281 280 279 279 278 277 277 278 279 279 280 280 279 279 279 279 280 282 284 285 285 286 287 288 288 286 286 287 288 290 292 293 294 296
282 282 283 285 285 284 283 283 283 283 281 280 279 278 277 277 278 280 280 280 280 280 279 279 280 280 282 283 284 285 285 286 287 288 289 288 289 290 292 294 294 294 296
282 281 282 284 284 284 282 282 282 283 282 281 279 279 279 279 279 279 280 280 280 281 281 281 281 281 282 282 283 284 284 285 285 286 287 288 289 289 291 293 294 295 296
283 283 283 283 283 283 281 280 280 281 281 281 280 280 280 280 280 279 279 279 280 281 281 281 281 281 281 282 281 282 283 284 284 285 286 287 288 289 291 292 294 295 296
284 284 283 283 283 282 282 281 280 280 280 281 280 280 280 281 281 279 278 279 279 279 279 280 280 280 281 281 281 281 282 283 284 284 285 286 287 288 290 291 293 294 295
284 284 283 283 283 282 282 283 281 280 281 281 282 282 282 281 280 280 279 279 279 279 279 280 280 280 280 281 281 281 281 281 282 283 284 284 285 287 288 290 291 292 293
284 284 284 284 284 283 282 283 283 282 282 282 282 283 282 280 279 279 280 280 280 280 280 281 282 280 279 280 280 281 280 280 281 282 283 283 284 286 288 289 291 292 292
284 284 284 284 284 284 283 283 283 283 284 284 284 283 282 280 280 280 280 280 281 280 280 281 281 282 281 281 281 281 280 280 280 282 283 283 284 285 287 288 290 291 292
286 286 285 284 284 284 283 283 283 283 284 284 284 283 282 281 281 281 280 281 280 280 280 282 282 282 283 283 283 283 282 282 282 282 283 283 284 285 286 287 289 289 289
285 286 286 285 284 284 283 283 283 282 282 283 283 282 281 281 283 283 282 282 281 281 281 282 282 282 282 283 283 282 282 283 283 283 283 283 284 285 285 286 287 288 289
285 285 285 285 285 285 284 283 282 282 281 281 280 280 280 281 282 283 282 281 282 283 283 283 283 282 282 282 282 281 282 283 284 285 285 284 284 284 284 285 286 287 288
283 284 284 284 284 285 285 284 282 281 281 280 279 279 280 281 281 282 282 282 283 283 283 283 282 281 281 281 282 282 282 283 284 286 287 286 285 286 285 285 286 287 288
282 282 283 283 283 283 283 283 282 281 280 279 279 279 280 280 281 282 281 281 282 282 282 283 283 282 282 282 283 283 283 284 284 285 287 287 287 288 287 287 286 286 286
Height
5840 5839 5838 5837 5836 5836 5835 5834 5834 5833 5833 5833 5834 5834 5834 5834 5834 5834 5834 5833 5833 5832 5831 5831 5830 5829 5829 5828 5828 5827 5827 5826 5826 5825 5824 5823 5823 5822 5821 5820 5819 5817 5816
5838 5837 5836 5835 5834 5833 5832 5831 5831 5831 5830 5830 5831 5831 5831 5831 5831 5831 5831 5831 5830 5829 5829 5828 5828 5827 5826 5826 5825 5824 5824 5823 5823 5822 5821 5820 5819 5818 5817 5816 5814 5813 5812
5835 5834 5833 5832 5830 5830 5829 5828 5828 5828 5827 5828 5828 5828 5828 5828 5828 5828 5827 5827 5827 5826 5826 5825 5824 5824 5823 5823 5822 5821 5820 5820 5819 5818 5817 5816 5815 5814 5813 5811 5810 5808 5807
5831 5830 5829 5828 5827 5826 5825 5825 5824 5824 5824 5824 5824 5824 5824 5824 5824 5824 5824 5823 5823 5822 5822 5821 5821 5820 5820 5819 5819 5818 5817 5816 5815 5814 5813 5812 5811 5810 5808 5807 5805 5804 5802
5828 5826 5825 5824 5823 5822 5821 5821 5821 5821 5821 5821 5821 5821 5820 5820 5820 5820 5820 5819 5819 5818 5817 5817 5816 5816 5815 5815 5814 5813 5812 5812 5811 5810 5809 5808 5806 5805 5804 5802 5800 5798 5797
5824 5822 5821 5820 5819 5818 5817 5817 5817 5817 5817 5817 5816 5816 5816 5816 5816 5815 5815 5815 5814 5814 5813 5813 5812 5812 5811 5810 5809 5809 5808 5807 5806 5805 5804 5803 5801 5800 5798 5796 5795 5793 5791
5820 5819 5817 5816 5815 5814 5814 5813 5813 5813 5813 5812 5812 5811 5811 5811 5811 5811 5810 5810 5810 5809 5808 5808 5807 5807 5806 5805 5804 5803 5802 5801 5801 5800 5799 5797 5796 5794 5793 5791 5789 5787 5785
5815 5815 5813 5812 5811 5810 5809 5809 5809 5808 5808 5807 5807 5806 5806 5806 5806 5806 5805 5805 5805 5804 5803 5803 5802 5801 5800 5799 5798 5797 5796 5795 5794 5794 5793 5791 5790 5788 5786 5785 5782 5780 5778
5811 5810 5809 5808 5807 5806 5805 5804 5804 5803 5803 5802 5802 5801 5801 5801 5800 5800 5800 5799 5799 5798 5798 5797 5796 5795 5794 5793 5792 5791 5790 5789 5787 5787 5786 5784 5783 5781 5779 5778 5776 5774 5772
5805 5805 5804 5803 5802 5801 5800 5799 5798 5798 5797 5797 5796 5796 5795 5795 5794 5794 5794 5793 5793 5793 5792 5791 5789 5789 5788 5787 5786 5784 5783 5782 5781 5779 5778 5777 5776 5774 5772 5771 5769 5766 5764
5800 5799 5798 5797 5796 5795 5794 5793 5792 5791 5791 5790 5790 5790 5789 5789 5788 5787 5787 5787 5786 5785 5785 5784 5783 5782 5781 5780 5779 5777 5776 5775 5773 5772 5771 5770 5768 5767 5765 5763 5761 5759 5756
5794 5793 5793 5791 5790 5789 5788 5786 5785 5784 5784 5784 5783 5783 5783 5782 5781 5781 5780 5779 5779 5778 5778 5777 5776 5775 5774 5773 5772 5770 5769 5767 5766 5765 5763 5762 5760 5759 5757 5755 5753 5751 5748
5788 5787 5786 5785 5784 5782 5781 5780 5778 5777 5777 5776 5776 5776 5775 5775 5774 5774 5773 5772 5771 5771 5770 5769 5768 5767 5766 5765 5764 5763 5761 5760 5758 5757 5756 5754 5752 5751 5749 5747 5744 5742 5740
5781 5780 5779 5778 5777 5775 5774 5773 5772 5771 5770 5769 5768 5768 5768 5767 5766 5766 5765 5764 5764 5763 5762 5761 5760 5760 5759 5758 5756 5755 5753 5752 5750 5749 5748 5746 5744 5742 5740 5738 5736 5734 5731
5774 5774 5772 5771 5770 5769 5767 5766 5765 5764 5762 5762 5761 5760 5760 5759 5759 5758 5757 5756 5755 5755 5754 5753 5752 5751 5750 5749 5748 5747 5745 5744 5742 5741 5739 5737 5736 5734 5732 5729 5727 5725 5722
5767 5766 5765 5764 5762 5761 5760 5758 5757 5756 5755 5754 5753 5752 5751 5751 5750 5749 5748 5747 5746 5745 5745 5744 5743 5742 5741 5740 5739 5738 5736 5735 5733 5732 5730 5728 5727 5725 5723 5720 5718 5715 5713
5759 5758 5757 5755 5754 5753 5752 5750 5749 5748 5746 5745 5744 5743 5742 5741 5740 5739 5738 5738 5737 5736 5735 5734 5734 5733 5732 5731 5730 5728 5727 5726 5724 5722 5721 5719 5717 5715 5713 5711 5709 5706 5703
5751 5749 5748 5747 5745 5744 5743 5741 5740 5739 5738 5736 5735 5734 5732 5731 5730 5729 5728 5727 5727 5726 5725 5724 5724 5723 5722 5721 5720 5718 5717 5716 5714 5713 5711 5709 5708 5706 5704 5702 5699 5696 5694
5742 5740 5739 5737 5736 5735 5733 5732 5730 5729 5728 5726 5725 5724 5722 5721 5720 5719 5718 5717 5716 5716 5715 5714 5713 5712 5711 5710 5709 5708 5707 5705 5704 5702 5701 5699 5698 5696 5693 5691 5689 5686 5683
5732 5731 5729 5728 5726 5724 5723 5722 5720 5719 5717 5716 5715 5713 5712 5710 5709 5708 5708 5707 5706 5705 5704 5703 5702 5701 5700 5699 5698 5697 5696 5694 5693 5692 5690 5689 5687 5685 5683 5680 5678 5675 5672
5722 5721 5719 5717 5716 5714 5713 5711 5710 5709 5707 5706 5704 5702 5701 5700 5699 5698 5697 5696 5695 5694 5693 5692 5691 5690 5689 5688 5686 5685 5684 5683 5682 5680 5679 5677 5675 5673 5671 5669 5666 5664 5661
5712 5710 5709 5707 5706 5704 5703 5701 5700 5698 5697 5695 5694 5693 5691 5690 5689 5688 5687 5686 5685 5684 5683 5681 5680 5679 5677 5676 5675 5674 5672 5671 5669 5668 5666 5665 5663 5661 5659 5657 5655 5652 5649
5701 5700 5698 5696 5695 5693 5692 5690 5689 5687 5686 5685 5683 5682 5681 5680 5679 5678 5676 5675 5674 5673 5671 5670 5669 5667 5666 5665 5663 5662 5661 5659 5657 5655 5654 5652 5650 5648 5646 5645 5642 5640 5637
5690 5688 5687 5685 5684 5682 5681 5679 5678 5676 5675 5674 5672 5671 5670 5669 5668 5667 5665 5664 5663 5662 5660 5658 5657 5655 5654 5653 5651 5650 5648 5647 5645 5643 5641 5639 5637 5635 5633 5631 5629 5627 5624
5678 5676 5675 5674 5672 5671 5669 5667 5666 5664 5663 5662 5661 5660 5659 5658 5656 5655 5654 5652 5651 5650 5648 5646 5645 5643 5642 5640 5639 5638 5636 5634 5632 5630 5628 5626 5624 5622 5620 5618 5616 5614 5611
5665 5664 5663 5661 5660 5658 5657 5655 5654 5653 5651 5650 5649 5648 5647 5646 5645 5643 5642 5641 5639 5638 5636 5634 5633 5631 5629 5628 5626 5625 5623 5621 5619 5617 5615 5613 5611 5609 5607 5605 5602 5600 5598